カタログに戻る

FENGYUN 1C DEB

運用中SSO
NORAD 31642·DEBRIS·🇨🇳 China

打ち上げ May 10, 1999 から Taiyuan Satellite Launch Center

Loading…

次のパス (今後24時間)

TLE

最新Source: Space-Track

元期: Sep 12, 2026, 23:21 UTC

1 31642U 99025CAY 26255.97322073  .00000570  00000-0  20357-3 0  9996
2 31642  98.4871 338.2171 0119794 163.0271 197.4976 14.33872701  9155

AllMySatでFENGYUN 1C DEBをリアルタイム追跡

Download on the App Store